Weather History for Palmer, AK

Change the Weather History Date:

Saturday, May 25, 2013

  Actual Average Record
Temperature  
Mean Temperature 56 °F -  
Max Temperature 69 °F 61 °F 77 °F (1969)
Min Temperature 43 °F 39 °F 31 °F (1971)
Degree Days  
Heating Degree Days 10    
Growing Degree Days 6 (Base 50)    
Moisture  
Dew Point 30 °F    
Average Humidity 41    
Maximum Humidity 65    
Minimum Humidity 20    
Precipitation  
Precipitation 0.00 in - - ()
Sea Level Pressure  
Sea Level Pressure 29.95 in    
Wind  
Wind Speed 8 mph (ESE)    
Max Wind Speed 22 mph    
Max Gust Speed 29 mph    
Visibility 10 miles    
Events      
Averages and records for this station are not official NWS values.
T = Trace of Precipitation, MM = Missing Value Source: NWS Daily Summary

Daily Weather History Graph

Daily Weather History Graph

Search for Another Location

Airport:

Trip Planner

Search our weather history database for the weather conditions in past years. The results will help you decide how hot, cold, wet, or windy it might be!

Date:

Astronomy

May. 25, 2013 Rise Set
Actual Time 4:41 AM AKDT 11:07 PM AKDT
Civil Twilight 3:08 AM AKDT 12:42 AM AKDT
Nautical Twilight Sun does not rise Sun does not rise
Astronomical Twilight Sun does not rise Sun does not rise
Moon 11:57 PM AKDT (5/25) 5:27 AM AKDT (5/25)
Length of Visible Light 21h 33m
Length of Day
18h 26m
Full, 99% of the Moon is Illuminated
May 25
Full
May 31
Last Quarter
Jun 8
New
Jun 16
First Quarter
Jun 23
Full

Hourly Weather History & Observations

Time (AKDT) Temp. Windchill Dew Point Humidity Pressure Visibility Wind Dir Wind Speed Gust Speed Precip Events Conditions
12:53 AM 50.0 °F - 35.1 °F 57% 29.99 in 10.0 mi NNW 5.8 mph - N/A   Clear
1:53 AM 46.9 °F - 34.0 °F 61% 29.99 in 10.0 mi North 6.9 mph - N/A   Clear
2:53 AM 44.1 °F 41.5 °F 33.1 °F 65% 29.99 in 10.0 mi North 4.6 mph - N/A   Clear
3:53 AM 44.1 °F 41.5 °F 33.1 °F 65% 29.99 in 10.0 mi North 4.6 mph - N/A   Clear
4:53 AM 44.1 °F 39.5 °F 32.0 °F 63% 29.99 in 10.0 mi North 8.1 mph - N/A   Clear
5:53 AM 43.0 °F 38.8 °F 32.0 °F 65% 29.99 in 10.0 mi North 6.9 mph - N/A   Clear
6:53 AM 45.0 °F 42.6 °F 33.1 °F 63% 29.99 in 10.0 mi North 4.6 mph - N/A   Clear
7:53 AM 50.0 °F - 33.1 °F 52% 30.00 in 10.0 mi Calm Calm - N/A   Clear
8:53 AM 52.0 °F - 33.1 °F 49% 29.99 in 10.0 mi Calm Calm - N/A   Clear
9:53 AM 55.9 °F - 35.1 °F 45% 29.99 in 10.0 mi Calm Calm - N/A   Clear
10:53 AM 59.0 °F - 34.0 °F 39% 29.97 in 10.0 mi South 4.6 mph - N/A   Clear
11:53 AM 62.1 °F - 34.0 °F 35% 29.96 in 10.0 mi ESE 3.5 mph - N/A   Clear
12:53 PM 63.0 °F - 34.0 °F 34% 29.95 in 10.0 mi Calm Calm - N/A   Clear
1:53 PM 66.0 °F - 32.0 °F 28% 29.94 in 10.0 mi SSE 6.9 mph - N/A   Clear
2:53 PM 68.0 °F - 30.9 °F 25% 29.93 in 10.0 mi SSE 11.5 mph - N/A   Clear
3:53 PM 68.0 °F - 27.0 °F 21% 29.91 in 10.0 mi SSE 15.0 mph - N/A   Clear
4:53 PM 68.0 °F - 27.0 °F 21% 29.91 in 10.0 mi SE 20.7 mph 24.2 mph N/A   Clear
5:53 PM 66.9 °F - 25.0 °F 21% 29.90 in 10.0 mi SE 19.6 mph - N/A   Widespread Dust
6:53 PM 66.0 °F - 24.1 °F 20% 29.89 in 10.0 mi SE 21.9 mph 27.6 mph N/A   Widespread Dust
7:53 PM 64.0 °F - 24.1 °F 22% 29.88 in 10.0 mi SE 19.6 mph 28.8 mph N/A   Widespread Dust
8:53 PM 61.0 °F - 25.0 °F 25% 29.88 in 10.0 mi SE 18.4 mph 27.6 mph N/A   Widespread Dust
9:53 PM 57.9 °F - 25.0 °F 28% 29.88 in 10.0 mi SE 19.6 mph 28.8 mph N/A   Clear
10:53 PM 54.0 °F - 27.0 °F 35% 29.89 in 10.0 mi SE 17.3 mph 24.2 mph N/A   Clear
11:53 PM 52.0 °F - 26.1 °F 37% 29.90 in 10.0 mi SE 8.1 mph - N/A   Clear